Weather History for Staunton, VA

Change the Weather History Date:

Wednesday, February 26, 2014

  Actual Average Record
Temperature  
Mean Temperature 28 °F -  
Max Temperature 36 °F 50 °F 68 °F (2002)
Min Temperature 19 °F 29 °F 19 °F (2012)
Degree Days  
Heating Degree Days 38    
Moisture  
Dew Point 10 °F    
Average Humidity 46    
Maximum Humidity 65    
Minimum Humidity 19    
Precipitation  
Precipitation 0.00 in - - ()
Sea Level Pressure  
Sea Level Pressure 29.87 in    
Wind  
Wind Speed 3 mph (NW)    
Max Wind Speed 15 mph    
Max Gust Speed 22 mph    
Visibility 10 miles    
Events      
Averages and records for this station are not official NWS values.
T = Trace of Precipitation, MM = Missing Value Source: NWS Daily Summary

Daily Weather History Graph

Daily Weather History Graph

Search for Another Location

Airport:

Trip Planner

Search our weather history database for the weather conditions in past years. The results will help you decide how hot, cold, wet, or windy it might be!

Date:

Astronomy

Feb. 26, 2014 Rise Set
Actual Time 6:51 AM EST 6:05 PM EST
Civil Twilight 6:25 AM EST 6:32 PM EST
Nautical Twilight 5:54 AM EST 7:03 PM EST
Astronomical Twilight 5:23 AM EST 7:33 PM EST
Moon 4:34 AM EST (2/26) 3:19 PM EST (2/26)
Length of Visible Light 12h 07m
Length of Day
11h 14m
Waning Crescent, 10% of the Moon is Illuminated
Feb 26
Waning Crescent
Mar 1
New
Mar 8
First Quarter
Mar 16
Full
Mar 23
Last Quarter

Hourly Weather History & Observations

Time (EST) Temp. Windchill Dew Point Humidity Pressure Visibility Wind Dir Wind Speed Gust Speed Precip Events Conditions
12:15 AM 28.9 °F - 13.5 °F 52% 29.98 in 10.0 mi Calm Calm - N/A   Clear
12:35 AM 28.2 °F - 14.4 °F 56% 29.96 in 10.0 mi Calm Calm - N/A   Scattered Clouds
12:55 AM 28.0 °F - 14.9 °F 58% 29.95 in 10.0 mi Calm Calm - N/A   Mostly Cloudy
1:20 AM 27.7 °F - 16.0 °F 62% 29.94 in 10.0 mi Calm Calm - N/A   Overcast
1:35 AM 28.0 °F 22.8 °F 16.9 °F 63% 29.94 in 10.0 mi South 4.6 mph - N/A   Overcast
1:55 AM 28.9 °F 25.2 °F 15.4 °F 57% 29.92 in 10.0 mi SSE 3.5 mph - N/A   Overcast
2:15 AM 29.1 °F 24.1 °F 15.4 °F 57% 29.92 in 10.0 mi South 4.6 mph - N/A   Overcast
2:35 AM 28.4 °F - 16.9 °F 62% 29.91 in 10.0 mi Calm Calm - N/A   Overcast
2:55 AM 28.4 °F - 18.0 °F 65% 29.91 in 10.0 mi Calm Calm - N/A   Overcast
3:15 AM 28.4 °F 24.6 °F 17.1 °F 63% 29.91 in 10.0 mi SSW 3.5 mph - N/A   Overcast
3:35 AM 28.4 °F - 17.6 °F 64% 29.90 in 10.0 mi Calm Calm - N/A   Overcast
3:55 AM 28.6 °F - 17.4 °F 63% 29.89 in 10.0 mi Calm Calm - N/A   Overcast
4:15 AM 29.3 °F - 17.1 °F 60% 29.88 in 10.0 mi Calm Calm - N/A   Overcast
4:35 AM 29.1 °F - 17.6 °F 62% 29.88 in 10.0 mi Calm Calm - N/A   Overcast
4:55 AM 29.8 °F - 18.0 °F 61% 29.88 in 10.0 mi Calm Calm - N/A   Overcast
5:15 AM 29.7 °F - 18.3 °F 63% 29.89 in 10.0 mi Calm Calm - N/A   Overcast
5:35 AM 29.8 °F 26.3 °F 18.1 °F 62% 29.89 in 10.0 mi SW 3.5 mph - N/A   Overcast
6:00 AM 29.8 °F 26.3 °F 18.7 °F 63% 29.90 in 10.0 mi SW 3.5 mph - N/A   Overcast
6:15 AM 30.9 °F - 16.7 °F 56% 29.90 in 10.0 mi Calm Calm - N/A   Overcast
6:35 AM 30.6 °F 25.8 °F 17.2 °F 58% 29.89 in 10.0 mi SSW 4.6 mph - N/A   Overcast
6:55 AM 31.1 °F 24.5 °F 16.5 °F 55% 29.91 in 10.0 mi West 6.9 mph - N/A   Overcast
7:15 AM 30.9 °F 24.3 °F 17.1 °F 57% 29.91 in 10.0 mi WSW 6.9 mph - N/A   Overcast
7:35 AM 30.7 °F 22.6 °F 17.6 °F 58% 29.92 in 10.0 mi SW 9.2 mph - N/A   Overcast
7:55 AM 30.6 °F 23.1 °F 18.0 °F 60% 29.95 in 10.0 mi SW 8.1 mph - N/A   Overcast
8:15 AM 31.1 °F 25.4 °F 17.8 °F 58% 29.96 in 10.0 mi NW 5.8 mph - N/A   Overcast
8:35 AM 30.9 °F 25.2 °F 17.1 °F 57% 29.96 in 10.0 mi West 5.8 mph - N/A   Overcast
8:55 AM 31.5 °F 28.1 °F 18.0 °F 57% 29.95 in 10.0 mi NW 3.5 mph - N/A   Overcast
9:15 AM 31.5 °F 26.8 °F 16.3 °F 54% 29.95 in 10.0 mi NW 4.6 mph - N/A   Overcast
9:35 AM 31.5 °F 24.9 °F 13.1 °F 47% 29.94 in 10.0 mi WNW 6.9 mph - N/A   Overcast
9:55 AM 32.0 °F 23.0 °F 11.1 °F 42% 29.94 in 10.0 mi WNW 11.5 mph - N/A   Overcast
10:15 AM 32.0 °F 24.2 °F 12.7 °F 45% 29.93 in 10.0 mi NNW 9.2 mph - N/A   Overcast
10:40 AM 32.0 °F 24.8 °F 13.3 °F 46% 29.92 in 10.0 mi North 8.1 mph - N/A   Overcast
10:55 AM 33.4 °F 29.1 °F 13.6 °F 44% 29.92 in 10.0 mi North 4.6 mph - N/A   Mostly Cloudy
11:15 AM 32.9 °F 24.7 °F 12.2 °F 42% 29.92 in 10.0 mi NW 10.4 mph - N/A   Mostly Cloudy
11:35 AM 32.5 °F - 9.9 °F 39% 29.92 in 10.0 mi Calm Calm - N/A   Overcast
11:55 AM 35.4 °F 27.3 °F 7.9 °F 32% 29.91 in 10.0 mi NW 11.5 mph 17.3 mph N/A   Mostly Cloudy
12:15 PM 35.2 °F 25.8 °F 7.2 °F 31% 29.88 in 10.0 mi WNW 15.0 mph - N/A   Scattered Clouds
12:35 PM 34.5 °F 26.7 °F 5.4 °F 29% 29.88 in 10.0 mi NNW 10.4 mph 16.1 mph N/A   Scattered Clouds
12:55 PM 36.5 °F 28.2 °F 3.6 °F 25% 29.86 in 10.0 mi NNW 12.7 mph 20.7 mph N/A   Scattered Clouds
1:15 PM 36.3 °F 28.0 °F 2.5 °F 24% 29.86 in 10.0 mi NNW 12.7 mph - N/A   Clear
1:35 PM 36.0 °F 28.5 °F 1.8 °F 24% 29.84 in 10.0 mi NNW 10.4 mph - N/A   Clear
1:55 PM 36.5 °F 29.2 °F 1.8 °F 23% 29.84 in 10.0 mi NW 10.4 mph 20.7 mph N/A   Clear
2:15 PM 36.1 °F 27.3 °F -0.4 °F 21% 29.83 in 10.0 mi NNW 13.8 mph 21.9 mph N/A   Clear
2:35 PM 36.1 °F 27.7 °F -0.8 °F 21% 29.83 in 10.0 mi NW 12.7 mph 18.4 mph N/A   Clear
2:55 PM 36.0 °F 31.1 °F -1.5 °F 20% 29.82 in 10.0 mi WNW 5.8 mph - N/A   Clear
3:15 PM 36.5 °F 29.2 °F -2.2 °F 19% 29.82 in 10.0 mi NNW 10.4 mph 18.4 mph N/A   Clear
3:35 PM 36.1 °F 30.6 °F -1.1 °F 21% 29.82 in 10.0 mi NNW 6.9 mph - N/A   Clear
3:55 PM 36.1 °F 29.3 °F -1.1 °F 21% 29.81 in 10.0 mi NW 9.2 mph - N/A   Clear
4:15 PM 35.6 °F 31.7 °F -1.5 °F 21% 29.81 in 10.0 mi North 4.6 mph - N/A   Clear
4:35 PM 35.6 °F 29.2 °F -0.6 °F 22% 29.81 in 10.0 mi NNW 8.1 mph - N/A   Clear
4:55 PM 34.7 °F 27.5 °F -1.7 °F 21% 29.80 in 10.0 mi North 9.2 mph - N/A   Clear
5:15 PM 34.0 °F 28.8 °F -1.3 °F 22% 29.80 in 10.0 mi North 5.8 mph - N/A   Clear
5:35 PM 33.1 °F 28.7 °F -0.4 °F 24% 29.80 in 10.0 mi NW 4.6 mph - N/A   Clear
5:55 PM 32.2 °F 27.7 °F 0.7 °F 26% 29.80 in 10.0 mi NNW 4.6 mph - N/A   Clear
6:15 PM 31.1 °F 27.7 °F 1.9 °F 29% 29.80 in 10.0 mi North 3.5 mph - N/A   Clear
6:35 PM 30.0 °F 26.5 °F 1.9 °F 30% 29.81 in 10.0 mi NNW 3.5 mph - N/A   Clear
6:55 PM 28.9 °F - 2.8 °F 33% 29.81 in 10.0 mi Calm Calm - N/A   Clear
7:15 PM 29.3 °F 25.6 °F 2.3 °F 32% 29.82 in 10.0 mi North 3.5 mph - N/A   Clear
7:35 PM 27.7 °F - 4.8 °F 38% 29.83 in 10.0 mi Calm Calm - N/A   Clear
7:55 PM 26.2 °F - 5.9 °F 42% 29.83 in 10.0 mi Calm Calm - N/A   Clear
8:15 PM 23.9 °F - 7.3 °F 49% 29.83 in 10.0 mi Calm Calm - N/A   Clear
8:35 PM 24.8 °F - 6.3 °F 45% 29.83 in 10.0 mi Calm Calm - N/A   Clear
8:55 PM 21.2 °F - 9.0 °F 59% 29.83 in 10.0 mi Calm Calm - N/A   Clear
9:15 PM 21.9 °F 17.2 °F 7.5 °F 54% 29.83 in 10.0 mi West 3.5 mph - N/A   Clear
9:35 PM 23.2 °F 17.2 °F 5.9 °F 48% 29.84 in 10.0 mi NW 4.6 mph - N/A   Clear
9:55 PM 22.6 °F - 6.8 °F 51% 29.84 in 10.0 mi Calm Calm - N/A   Clear
10:15 PM 21.4 °F - 7.9 °F 56% 29.84 in 10.0 mi Calm Calm - N/A   Clear
10:35 PM 21.6 °F - 7.3 °F 54% 29.84 in 10.0 mi Calm Calm - N/A   Clear
10:55 PM 19.4 °F - 8.8 °F 63% 29.84 in 10.0 mi Calm Calm - N/A   Clear
11:15 PM 20.3 °F - 9.0 °F 62% 29.84 in 10.0 mi Calm Calm - N/A   Clear
11:35 PM 19.0 °F - 8.2 °F 63% 29.84 in 10.0 mi Calm Calm - N/A   Clear
11:55 PM 19.8 °F - 9.1 °F 63% 29.83 in 10.0 mi Calm Calm - N/A   Clear